Time,TemperatureF,DewpointF,PressureIn,WindDirection,WindDirectionDegrees,WindSpeedMPH,WindSpeedGustMPH,Humidity,HourlyPrecipIn,Conditions,Clouds,dailyrainin,SoftwareType,DateUTC
2013-04-23 00:02:00,44.5,38.1,30.24,NNE,18,0.0,27.0,78,0.00,,,0.00,Wunderground v.1.15,2013-04-23 04:02:00,
2013-04-23 01:02:00,41.4,37.5,30.24,North,355,0.0,27.0,86,0.00,,,0.00,Wunderground v.1.15,2013-04-23 05:02:00,
2013-04-23 02:02:00,42.2,38.0,30.23,North,360,0.0,27.0,85,0.00,,,0.00,Wunderground v.1.15,2013-04-23 06:02:00,
2013-04-23 03:02:00,42.8,36.7,30.21,North,355,1.0,27.0,79,0.00,,,0.00,Wunderground v.1.15,2013-04-23 07:02:00,
2013-04-23 04:02:00,42.6,37.5,30.21,North,5,0.0,27.0,82,0.00,,,0.00,Wunderground v.1.15,2013-04-23 08:02:00,
2013-04-23 05:02:00,42.5,36.4,30.21,NNW,338,0.0,27.0,79,0.00,,,0.00,Wunderground v.1.15,2013-04-23 09:02:00,
2013-04-23 06:02:00,43.7,36.3,30.20,NNE,23,2.0,27.0,75,0.00,,,0.00,Wunderground v.1.15,2013-04-23 10:02:00,
2013-04-23 07:02:00,43.8,36.7,30.22,NNE,12,2.0,27.0,76,0.00,,,0.00,Wunderground v.1.15,2013-04-23 11:02:00,
2013-04-23 08:02:00,46.4,39.6,30.21,East,83,3.0,27.0,77,0.00,,,0.00,Wunderground v.1.15,2013-04-23 12:02:00,
2013-04-23 09:02:00,52.7,41.7,30.24,North,355,6.0,27.0,66,0.00,,,0.00,Wunderground v.1.15,2013-04-23 13:02:00,
2013-04-23 10:02:00,55.9,43.5,30.22,NE,39,7.0,27.0,63,0.00,,,0.00,Wunderground v.1.15,2013-04-23 14:02:00,
2013-04-23 11:02:00,58.9,45.0,30.22,NE,38,6.0,27.0,60,0.00,,,0.00,Wunderground v.1.15,2013-04-23 15:02:00,
2013-04-23 12:02:00,62.0,47.5,30.22,NNE,19,5.0,27.0,59,0.00,,,0.00,Wunderground v.1.15,2013-04-23 16:02:00,
2013-04-23 13:02:00,64.9,46.3,30.18,North,355,3.0,3.0,51,0.00,,,0.00,Wunderground v.1.15,2013-04-23 17:02:00,
2013-04-23 14:02:00,66.7,46.9,30.16,SSE,161,2.0,2.0,49,0.00,,,0.00,Wunderground v.1.15,2013-04-23 18:02:00,
2013-04-23 15:02:00,69.5,47.2,30.13,North,5,4.0,4.0,45,0.00,,,0.00,Wunderground v.1.15,2013-04-23 19:02:00,
2013-04-23 16:02:00,71.0,48.0,30.11,ESE,106,2.0,11.0,44,0.00,,,0.00,Wunderground v.1.15,2013-04-23 20:02:00,
2013-04-23 17:02:00,71.7,47.4,30.08,South,186,2.0,11.0,42,0.00,,,0.00,Wunderground v.1.15,2013-04-23 21:02:00,
2013-04-23 18:02:00,71.7,51.5,30.08,South,187,2.0,11.0,49,0.00,,,0.00,Wunderground v.1.15,2013-04-23 22:02:00,
2013-04-23 19:02:00,70.1,46.6,30.08,SSE,160,2.0,11.0,43,0.00,,,0.00,Wunderground v.1.15,2013-04-23 23:02:00,
2013-04-23 20:02:00,66.6,49.9,30.08,SW,226,0.0,11.0,55,0.00,,,0.00,Wunderground v.1.15,2013-04-24 00:02:00,
2013-04-23 21:02:00,61.1,50.5,30.09,WSW,252,0.0,11.0,68,0.00,,,0.04,Wunderground v.1.15,2013-04-24 01:02:00,
2013-04-23 22:02:00,58.2,49.6,30.11,WSW,252,1.0,11.0,73,0.00,,,0.04,Wunderground v.1.15,2013-04-24 02:02:00,
2013-04-23 23:02:00,56.8,50.4,30.11,WSW,251,0.0,11.0,79,0.00,,,0.04,Wunderground v.1.15,2013-04-24 03:02:00,